Regional Weather Roundup
Issued by NWS

Home | Current Version | Previous Version | Text Only | Print | Product List | Glossary Off
Versions: 1 2 3 4 5 6 7 8 9 10 11 12 13 14 15 16 17 18 19 20 21 22 23 24 25 26 27 28 29 30 31 32 33 34 35 36 37 38 39 40 41 42 43 44 45 46 47 48 49 50

000
ASUS43 KTOP 032208
RWRKS

WEATHER ROUNDUP FOR KANSAS
NATIONAL WEATHER SERVICE GOODLAND KS
500 PM CDT SUN MAY 03 2015

NOTE:  "FAIR" INDICATES FEW OR NO CLOUDS BELOW 12,000 FEET WITH NO
SIGNIFICANT WEATHER AND/OR OBSTRUCTIONS TO VISIBILITY.

KSZ001>006-013>018-027>032-041>047-032300-
NORTHWEST KANSAS

CITY           SKY/WX    TMP DP  RH WIND       PRES   REMARKS
GOODLAND       CLOUDY    83  40  21 N12       29.85F
HAYS           PTSUNNY   90  45  20 S14       29.77F
HILL CITY      PTSUNNY   86  49  27 W5        29.76F
RUSSELL        PTSUNNY   89  49  25 S16       29.75F
$$

KSZ061>065-074>080-084>089-032300-
SOUTHWEST KANSAS

CITY           SKY/WX    TMP DP  RH WIND       PRES   REMARKS
DODGE CITY     MOSUNNY   88  45  22 S9G21     29.80F
ELKHART          N/A     81  41  24 W5          N/A
GARDEN CITY    PTSUNNY   87  37  17 VRB3      29.79F
GREAT BEND     PTSUNNY   82  54  36 S16       29.78S
LIBERAL        SUNNY     88  45  22 S9        29.81F
PRATT          SUNNY     86  52  30 S22G29    29.82S
$$

KSZ066>073-081>083-090>101-032300-
SOUTHEAST KANSAS

CITY           SKY/WX    TMP DP  RH WIND       PRES   REMARKS
CHANUTE        PTSUNNY   80  58  46 S18G30    29.87F
COFFEYVILLE    PTSUNNY   79  59  50 S16G26    29.88F
HUTCHINSON     MOSUNNY   85  57  38 S18       29.79F
MEDICINE LODGE   N/A     83  56  39 S18G28    29.80F
NEWTON         PTSUNNY   82  55  39 S23G33    29.83F
PARSONS        PTSUNNY   80  60  50 S14G24    29.89F
WICHITA INTL   PTSUNNY   82  54  37 S21G33    29.82F
WICHITA JABRA  PTSUNNY   81  56  42 S21G31    29.82F
WICHITA MCCONL PTSUNNY   82  56  40 S28G35    29.83S
WINFIELD       PTSUNNY   81  54  39 S23G35    29.87S
$$

KSZ007>012-019>026-033>040-048>060-102>105-032300-
NORTHEAST KANSAS

CITY           SKY/WX    TMP DP  RH WIND       PRES   REMARKS
CONCORDIA      SUNNY     86  55  34 S15G23    29.75F
EMPORIA        MOSUNNY   83  53  35 S24G33    29.81F
LAWRENCE       PTSUNNY   82  58  43 S13G23    29.80F
MANHATTAN      MOSUNNY   86  57  37 S18       29.76F
MARYSVILLE     MOSUNNY   86  61  42 S14G20    29.75S
OLATHE IND     PTSUNNY   82  58  43 S14G26    29.84F
OLATHE EXE     PTSUNNY   80  58  46 SW20G28   29.84S
SALINA         PTSUNNY   85  57  38 S14G25    29.77F
TOPEKA BILLARD PTSUNNY   85  57  38 S18G26    29.78F
TOPEKA FORBES  MOSUNNY   86  56  35 S21G30    29.78F
$$


USA.gov is the U.S. government's official web portal to all federal, state and local government web resources and services.